Date String (YYYY-MM-DD hh:mm:ss) UTC,Instrument flags,absolute air pressure of the measurement (hPa),sample flow rate (lpm),inlet stack bypass flow (lpm),air temperature of the measurement (°C),ambient temperature measured by the external sensor (°C),aerosol sample conditioner tube jacket temperature (°C),OPC LED temperature (°C),internal box temperature (°C),relative humidity of the measurement (%),span deviation,mass concentration of particles derived from Lorenz-Mie calculation of OPC scattering (μg/m³),mass concentration of particles derived from Lorenz-Mie calculation of OPC scattering (μg/m³),mass concentration of particles derived from Lorenz-Mie calculation of OPC scattering (μg/m³)
DateTimeUTC,F1_M11,P_M11,Q1_M11,Q2_M11,T1_M11,T2_M11,T3_M11,T4_M11,T5_M11,U1_M11,ZSPAN_M11,X0_M11,X2_M11,X1_M11
2023-07-23 04:00:00,SystemResetWarning,0835.0,5.00,000.00,028.9,025.7,000.0,037.4,030.3,27.4,-000.2,0011.10,0007.04,0006.63
2023-07-23 04:01:00,SystemResetWarning,0835.0,5.00,000.00,028.9,026.1,000.0,037.4,030.4,27.2,-000.6,0011.59,0007.06,0006.64
2023-07-23 04:02:00,SystemResetWarning,0835.0,5.00,000.00,028.9,026.5,000.0,037.4,030.4,27.2,-000.8,0011.82,0007.05,0006.65
2023-07-23 04:03:00,SystemResetWarning,0835.0,5.00,000.00,029.0,026.9,000.0,037.4,030.5,27.3,-000.6,0012.03,0007.05,0006.66
2023-07-23 04:04:00,SystemResetWarning,0835.0,5.01,000.00,029.0,027.2,000.0,037.4,030.6,27.1,0000.0,0012.05,0007.07,0006.68
2023-07-23 04:05:00,SystemResetWarning,0835.0,5.00,000.00,029.0,027.4,000.0,037.4,030.7,27.0,0000.0,0012.24,0007.10,0006.68
2023-07-23 04:06:00,SystemResetWarning,0835.0,5.00,000.00,029.1,027.6,000.0,037.5,030.7,27.1,0000.0,0011.84,0007.10,0006.69
2023-07-23 04:07:00,SystemResetWarning,0835.0,5.00,000.00,029.1,027.8,000.0,037.5,030.8,26.8,-000.6,0011.73,0007.09,0006.70
2023-07-23 04:08:00,SystemResetWarning,0835.1,5.00,000.00,029.1,027.9,000.0,037.5,030.8,26.9,0000.0,0011.80,0007.12,0006.71
2023-07-23 04:09:00,SystemResetWarning,0835.1,5.00,000.00,029.2,028.0,000.0,037.5,030.9,27.1,0000.0,0011.38,0007.13,0006.72
2023-07-23 04:10:00,SystemResetWarning,0835.1,5.00,000.00,029.2,028.1,000.0,037.6,030.9,27.2,0000.0,0011.37,0007.18,0006.75
2023-07-23 04:11:00,SystemResetWarning,0835.0,4.98,000.00,029.3,027.8,000.0,037.5,030.9,27.2,0000.0,0011.32,0007.24,0006.77
2023-07-23 04:12:00,SystemResetWarning,0835.0,5.00,000.00,029.2,026.0,000.0,037.4,030.7,27.0,0000.0,0010.92,0007.27,0006.79
2023-07-23 04:13:00,SystemResetWarning,0835.0,5.01,000.00,029.1,025.2,000.0,037.4,030.5,26.8,0000.2,0010.57,0007.30,0006.82
2023-07-23 04:14:00,SystemResetWarning,0834.9,5.01,000.00,029.0,025.4,000.0,037.4,030.2,27.2,0000.0,0010.57,0007.31,0006.83
2023-07-23 04:15:00,SystemResetWarning,0835.0,4.99,000.00,029.0,025.7,000.0,037.4,030.3,27.1,0000.0,0011.18,0007.33,0006.83
2023-07-23 04:16:00,SystemResetWarning,0835.0,4.99,000.00,029.0,026.1,000.0,037.4,030.4,27.2,0000.0,0011.15,0007.34,0006.85
2023-07-23 04:17:00,SystemResetWarning,0835.0,5.00,000.00,029.0,026.5,000.0,037.4,030.5,27.3,0000.0,0011.38,0007.33,0006.85
2023-07-23 04:18:00,SystemResetWarning,0834.9,5.01,000.00,029.0,026.9,000.0,037.4,030.5,27.4,0000.0,0012.59,0007.34,0006.86
2023-07-23 04:19:00,SystemResetWarning,0835.0,5.00,000.00,029.0,027.1,000.0,037.5,030.6,27.1,0001.2,0013.42,0007.35,0006.88
2023-07-23 04:20:00,SystemResetWarning,0835.0,4.98,000.00,029.0,027.4,000.0,037.5,030.7,26.8,0001.6,0013.40,0007.35,0006.90
2023-07-23 04:21:00,SystemResetWarning,0835.0,4.99,000.00,029.1,027.6,000.0,037.5,030.7,26.8,0001.4,0013.30,0007.32,0006.90
2023-07-23 04:22:00,SystemResetWarning,0835.0,5.00,000.00,029.1,027.8,000.0,037.5,030.8,26.7,0000.3,0013.10,0007.28,0006.91
2023-07-23 04:23:00,SystemResetWarning,0835.0,5.00,000.00,029.1,027.9,000.0,037.5,030.8,26.8,0000.0,0012.95,0007.25,0006.90
2023-07-23 04:24:00,SystemResetWarning,0835.0,5.01,000.00,029.2,028.0,000.0,037.5,030.9,26.9,0000.0,0012.95,0007.23,0006.89
2023-07-23 04:25:00,SystemResetWarning,0835.0,5.00,000.00,029.2,028.0,000.0,037.6,030.9,26.7,0000.1,0012.87,0007.23,0006.88
2023-07-23 04:26:00,SystemResetWarning,0835.0,4.98,000.00,029.2,026.6,000.0,037.5,030.8,26.6,0000.0,0012.22,0007.22,0006.89
2023-07-23 04:27:00,SystemResetWarning,0834.9,5.02,000.00,029.2,025.3,000.0,037.4,030.6,26.6,-000.2,0011.95,0007.19,0006.89
2023-07-23 04:28:00,SystemResetWarning,0834.9,5.01,000.00,029.1,025.2,000.0,037.3,030.4,26.6,-000.2,0011.83,0007.21,0006.90
2023-07-23 04:29:00,SystemResetWarning,0834.9,4.99,000.00,029.0,025.5,000.0,037.4,030.3,26.7,-000.4,0010.90,0007.21,0006.90
2023-07-23 04:30:00,SystemResetWarning,0834.9,5.00,000.00,029.0,026.0,000.0,037.4,030.4,26.5,-000.8,0009.76,0007.20,0006.90
2023-07-23 04:31:00,SystemResetWarning,0835.0,5.01,000.00,029.0,026.3,000.0,037.4,030.4,26.6,-000.1,0009.74,0007.21,0006.90
2023-07-23 04:32:00,SystemResetWarning,0834.9,5.01,000.00,029.0,026.7,000.0,037.4,030.5,26.6,-000.1,0010.61,0007.25,0006.91
2023-07-23 04:33:00,SystemResetWarning,0834.9,5.00,000.00,029.0,027.0,000.0,037.4,030.6,26.2,0000.0,0011.30,0007.28,0006.92
2023-07-23 04:34:00,SystemResetWarning,0835.2,4.99,000.00,029.0,027.3,000.0,037.5,030.6,26.6,0000.0,0011.39,0007.31,0006.93
2023-07-23 04:35:00,SystemResetWarning,0835.2,5.00,000.00,029.0,027.5,000.0,037.5,030.7,26.3,0000.1,0011.72,0007.31,0006.93
2023-07-23 04:36:00,SystemResetWarning,0835.3,5.00,000.00,029.1,027.6,000.0,037.5,030.7,26.1,0000.1,0012.39,0007.33,0006.93
2023-07-23 04:37:00,SystemResetWarning,0835.3,5.00,000.00,029.1,027.8,000.0,037.5,030.8,26.2,0000.1,0012.42,0007.33,0006.92
2023-07-23 04:38:00,SystemResetWarning,0835.0,5.00,000.00,029.1,027.9,000.0,037.5,030.8,26.4,0000.3,0012.45,0007.32,0006.92
2023-07-23 04:39:00,SystemResetWarning,0835.3,5.01,000.00,029.2,028.0,000.0,037.5,030.9,26.2,0000.3,0012.54,0007.28,0006.90
2023-07-23 04:40:00,SystemResetWarning,0835.1,5.01,000.00,029.2,028.1,000.0,037.6,030.9,25.7,0000.3,0012.47,0007.23,0006.88
2023-07-23 04:41:00,SystemResetWarning,0835.3,5.00,000.00,029.3,028.1,000.0,037.6,031.0,25.7,0000.6,0012.54,0007.28,0006.88
2023-07-23 04:42:00,SystemResetWarning,0835.3,4.98,000.00,029.3,026.7,000.0,037.5,030.8,25.6,0001.6,0012.56,0007.30,0006.89
2023-07-23 04:43:00,SystemResetWarning,0835.2,5.01,000.00,029.2,025.4,000.0,037.4,030.6,25.5,0000.8,0011.93,0007.28,0006.89
2023-07-23 04:44:00,SystemResetWarning,0835.2,5.01,000.00,029.1,025.3,000.0,037.4,030.4,25.8,0000.2,0011.20,0007.27,0006.87
2023-07-23 04:45:00,SystemResetWarning,0835.3,5.00,000.00,029.0,025.6,000.0,037.4,030.3,26.0,0000.4,0011.61,0007.25,0006.86
2023-07-23 04:46:00,SystemResetWarning,0835.3,5.00,000.00,029.0,026.0,000.0,037.4,030.4,26.5,0000.0,0012.03,0007.26,0006.87
2023-07-23 04:47:00,SystemResetWarning,0835.3,5.01,000.00,029.0,026.3,000.0,037.5,030.5,26.2,0000.1,0011.98,0007.27,0006.88
2023-07-23 04:48:00,SystemResetWarning,0835.4,5.00,000.00,029.0,026.7,000.0,037.5,030.5,26.1,0000.0,0012.03,0007.28,0006.89
2023-07-23 04:49:00,SystemResetWarning,0835.4,4.99,000.00,029.0,027.0,000.0,037.5,030.6,25.6,0000.2,0012.06,0007.30,0006.89
2023-07-23 04:50:00,SystemResetWarning,0835.4,4.99,000.00,029.0,027.2,000.0,037.5,030.7,25.8,0000.4,0012.00,0007.33,0006.90
2023-07-23 04:51:00,SystemResetWarning,0835.4,5.00,000.00,029.1,027.5,000.0,037.5,030.7,25.9,0000.9,0011.96,0007.40,0006.92
2023-07-23 04:52:00,SystemResetWarning,0835.3,5.00,000.00,029.1,027.6,000.0,037.5,030.8,25.7,0000.2,0011.93,0007.38,0006.92
2023-07-23 04:53:00,SystemResetWarning,0835.4,5.01,000.00,029.1,027.8,000.0,037.5,030.8,25.8,0000.0,0011.93,0007.37,0006.92
2023-07-23 04:54:00,SystemResetWarning,0835.3,5.01,000.00,029.2,027.9,000.0,037.6,030.9,25.7,0000.0,0011.96,0007.39,0006.93
2023-07-23 04:55:00,SystemResetWarning,0834.9,5.00,000.00,029.2,028.0,000.0,037.6,030.9,25.5,0000.0,0012.01,0007.39,0006.94
2023-07-23 04:56:00,SystemResetWarning,0834.9,5.00,000.00,029.2,028.1,000.0,037.6,030.9,25.1,0000.0,0011.68,0007.40,0006.94
2023-07-23 04:57:00,SystemResetWarning,0834.9,5.00,000.00,029.3,028.2,000.0,037.6,031.0,25.0,0000.6,0010.92,0007.40,0006.95
2023-07-23 04:58:00,SystemResetWarning,0834.9,4.99,000.00,029.3,028.2,000.0,037.7,031.0,25.2,0000.3,0011.02,0007.43,0006.96
2023-07-23 04:59:00,SystemResetWarning,0834.9,4.98,000.00,029.3,026.8,000.0,037.6,030.9,25.1,-000.0,0011.13,0007.45,0006.98
